DW5310 Weather Reports


Display with metric or nautical units.
time (UTC)temp
F
wind
direction
speed
MPH
gust
MPH
rain 1hr
in
rain 24hr
in
rain mn
in
humidity
%
barometer
mb
20260831232004 86 138 2.0 10.0 0.00 0.00 0.00 39 1008.5
20260831231504 86 266 1.0 10.0 0.00 0.00 0.00 39 1008.5
20260831231004 85 267 2.0 7.0 0.00 0.00 0.00 39 1007.5
20260831230504 85 35 0.0 8.0 0.00 0.00 0.00 39 1007.5
20260831230005 85 219 2.0 8.0 0.00 0.00 0.00 39 1007.5
20260831225505 85 205 2.0 8.0 0.00 0.00 0.00 40 1008.5
20260831225004 85 299 0.0 3.0 0.00 0.00 0.00 40 1008.5
20260831224504 86 341 0.0 5.0 0.00 0.00 0.00 40 1008.5
20260831224003 85 35 0.0 7.0 0.00 0.00 0.00 40 1008.5
20260831223505 85 35 1.0 7.0 0.00 0.00 0.00 40 1008.5
20260831223003 85 35 3.0 8.0 0.00 0.00 0.00 40 1008.5
20260831222504 86 43 0.0 8.0 0.00 0.00 0.00 40 1008.5
20260831222004 85 35 2.0 7.0 0.00 0.00 0.00 40 1008.5
20260831221503 85 35 1.0 13.0 0.00 0.00 0.00 40 1008.5
20260831221004 84 133 5.0 13.0 0.00 0.00 0.00 39 1008.5
20260831220504 84 127 0.0 10.0 0.00 0.00 0.00 40 1008.5
20260831220004 84 246 2.0 10.0 0.00 0.00 0.00 41 1008.5
20260831215504 84 117 2.0 13.0 0.00 0.00 0.00 41 1008.5
20260831214504 83 215 3.0 15.0 0.00 0.00 0.00 41 1008.5
20260831214004 83 147 7.0 15.0 0.00 0.00 0.00 41 1008.5
20260831213504 83 187 1.0 10.0 0.00 0.00 0.00 42 1008.5
20260831213003 82 132 4.0 8.0 0.00 0.00 0.00 41 1008.5
20260831212503 82 128 3.0 9.0 0.00 0.00 0.00 42 1009.5
20260831212004 82 41 1.0 9.0 0.00 0.00 0.00 43 1009.5
20260831211504 81 125 3.0 9.0 0.00 0.00 0.00 43 1009.5
20260831211004 81 260 0.0 9.0 0.00 0.00 0.00 42 1008.5
20260831210503 81 63 2.0 9.0 0.00 0.00 0.00 44 1008.5
20260831210004 81 161 5.0 9.0 0.00 0.00 0.00 45 1008.5
20260831205004 80 130 3.0 10.0 0.00 0.00 0.00 44 1007.5
20260831204504 80 3 2.0 10.0 0.00 0.00 0.00 45 1007.5
20260831204003 79 118 1.0 7.0 0.00 0.00 0.00 46 1008.5
20260831203504 79 275 2.0 7.0 0.00 0.00 0.00 45 1008.5
20260831203004 79 301 3.0 7.0 0.00 0.00 0.00 46 1008.5
20260831202504 79 341 2.0 7.0 0.00 0.00 0.00 47 1007.5
20260831202004 79 305 2.0 10.0 0.00 0.00 0.00 48 1007.5
20260831201507 78 305 5.0 10.0 0.00 0.00 0.00 46 1007.5
20260831201007 78 153 0.0 10.0 0.00 0.00 0.00 48 1008.5
20260831200507 77 100 3.0 10.0 0.00 0.00 0.00 49 1008.5
20260831200006 77 75 1.0 10.0 0.00 0.00 0.00 49 1008.5
20260831195506 77 333 1.0 13.0 0.00 0.00 0.00 49 1008.5
20260831195007 77 71 3.0 13.0 0.00 0.00 0.00 50 1008.5
20260831194007 77 117 1.0 9.0 0.00 0.00 0.00 51 1008.5
20260831193507 76 302 2.0 9.0 0.00 0.00 0.00 51 1008.5
20260831193006 76 88 5.0 9.0 0.00 0.00 0.00 52 1008.5
20260831192507 75 49 3.0 9.0 0.00 0.00 0.00 51 1008.5
20260831191506 75 11 3.0 9.0 0.00 0.00 0.00 51 1008.5
20260831191007 74 120 3.0 10.0 0.00 0.00 0.00 50 1009.5
20260831185508 74 82 5.0 14.0 0.00 0.00 0.00 54 1009.5
20260831185006 74 137 4.0 13.0 0.00 0.00 0.00 54 1009.5
20260831184506 73 181 5.0 13.0 0.00 0.00 0.00 57 1009.5
20260831184007 73 52 4.0 13.0 0.00 0.00 0.00 58 1009.5
20260831183507 72 76 1.0 9.0 0.00 0.00 0.00 58 1009.5
20260831182506 71 110 5.0 10.0 0.00 0.00 0.00 57 1009.5
20260831181007 70 79 1.0 13.0 0.00 0.00 0.00 63 1009.5
20260831180007 70 125 2.0 10.0 0.00 0.00 0.00 62 1009.5
20260831175507 69 66 4.0 8.0 0.00 0.00 0.00 64 1009.5
20260831174506 68 86 1.0 9.0 0.00 0.00 0.00 66 1009.5
20260831174006 68 314 0.0 8.0 0.00 0.00 0.00 68 1009.5
20260831173507 67 104 1.0 7.0 0.00 0.00 0.00 68 1009.5
20260831173006 67 157 2.0 8.0 0.00 0.00 0.00 70 1009.5
20260831172506 66 84 2.0 8.0 0.00 0.00 0.00 70 1010.5
20260831172006 66 284 0.0 10.0 0.00 0.00 0.00 71 1010.5
20260831171506 66 73 1.0 10.0 0.00 0.00 0.00 72 1010.5
20260831171006 66 96 0.0 8.0 0.00 0.00 0.00 72 1010.5
20260831170506 65 123 1.0 8.0 0.00 0.00 0.00 73 1010.5
20260831170006 65 45 1.0 6.0 0.00 0.00 0.00 75 1010.5
20260831165507 64 79 0.0 0.0 0.00 0.00 0.00 77 1010.5
20260831165007 63 8 0.0 0.0 0.00 0.00 0.00 78 1010.5
20260831164506 63 26 0.0 0.0 0.00 0.00 0.00 78 1010.5
20260831164006 63 305 0.0 0.0 0.00 0.00 0.00 79 1010.5
20260831163506 62 350 0.0 5.0 0.00 0.00 0.00 80 1010.5
20260831163006 62 90 2.0 5.0 0.00 0.00 0.00 81 1010.5
20260831162506 62 35 0.0 0.0 0.00 0.00 0.00 82 1010.5
20260831162006 61 58 2.0 0.0 0.00 0.00 0.00 82 1010.5
20260831161507 61 77 0.0 0.0 0.00 0.00 0.00 83 1010.5
20260831160506 60 148 0.0 0.0 0.00 0.00 0.00 84 1010.5
20260831160007 60 35 0.0 0.0 0.00 0.00 0.00 86 1010.5
20260831155507 59 35 0.0 0.0 0.00 0.00 0.00 87 1010.5
20260831155006 59 57 0.0 5.0 0.00 0.00 0.00 87 1010.5
20260831154506 59 35 0.0 5.0 0.00 0.00 0.00 88 1010.5
20260831153506 58 148 0.0 3.0 0.00 0.00 0.00 89 1010.5
20260831153006 58 35 0.0 3.0 0.00 0.00 0.00 89 1010.5
20260831152507 58 139 0.0 6.0 0.00 0.00 0.00 89 1010.5
20260831152006 57 161 0.0 6.0 0.00 0.00 0.00 90 1010.5
20260831151506 57 215 0.0 6.0 0.00 0.00 0.00 90 1010.5
20260831151006 57 35 0.0 0.0 0.00 0.00 0.00 91 1010.5
20260831150506 57 35 0.0 0.0 0.00 0.00 0.00 91 1010.5
20260831150006 57 35 0.0 0.0 0.00 0.00 0.00 92 1010.5
20260831145510 56 35 0.0 6.0 0.00 0.00 0.00 92 1010.5
20260831145006 56 92 0.0 6.0 0.00 0.00 0.00 92 1010.5
20260831144006 55 35 0.0 0.0 0.00 0.00 0.00 93 1010.5
20260831143505 55 100 0.0 0.0 0.00 0.00 0.00 93 1010.5
20260831143007 54 35 0.0 0.0 0.00 0.00 0.00 93 1010.5
20260831142506 54 37 0.0 0.0 0.00 0.00 0.00 93 1010.5
20260831142006 54 43 0.0 0.0 0.00 0.00 0.00 92 1010.5
20260831141506 53 39 0.0 0.0 0.00 0.00 0.00 93 1010.5
20260831140506 53 80 0.0 0.0 0.00 0.00 0.00 92 1010.5
20260831140006 53 80 0.0 0.0 0.00 0.00 0.00 92 1010.5
20260831135506 53 58 0.0 0.0 0.00 0.00 0.00 92 1010.5
20260831134505 53 58 0.0 0.0 0.00 0.00 0.00 92 1010.5
20260831134006 53 58 0.0 0.0 0.00 0.00 0.00 92 1010.5
20260831133505 53 58 0.0 0.0 0.00 0.00 0.00 92 1010.5
20260831133006 53 58 0.0 0.0 0.00 0.00 0.00 91 1010.5
20260831132006 53 58 0.0 0.0 0.00 0.00 0.00 91 1010.5
20260831130506 53 102 0.0 0.0 0.00 0.00 0.00 91 1010.5
20260831130006 53 102 0.0 0.0 0.00 0.00 0.00 90 1010.5
20260831125506 53 139 0.0 0.0 0.00 0.00 0.00 90 1010.5
20260831125006 53 80 0.0 0.0 0.00 0.00 0.00 90 1010.5
20260831124506 54 80 0.0 0.0 0.00 0.00 0.00 90 1010.5
20260831124006 54 80 0.0 0.0 0.00 0.00 0.00 89 1010.5
20260831123006 54 80 0.0 0.0 0.00 0.00 0.00 89 1010.5
20260831122505 54 125 0.0 0.0 0.00 0.00 0.00 89 1010.5
20260831122006 54 80 0.0 0.0 0.00 0.00 0.00 89 1010.5
20260831121506 54 102 0.0 0.0 0.00 0.00 0.00 89 1010.5
20260831121006 54 102 0.0 0.0 0.00 0.00 0.00 89 1011.5
20260831120506 54 102 0.0 0.0 0.00 0.00 0.00 89 1011.5
20260831120006 55 102 0.0 0.0 0.00 0.00 0.00 89 1011.5
20260831115505 55 102 0.0 0.0 0.00 0.00 0.00 88 1011.5
20260831114506 55 102 0.0 0.0 0.00 0.00 0.00 88 1011.5
20260831114005 55 102 0.0 0.0 0.00 0.00 0.00 88 1012.5
20260831113505 55 102 0.0 0.0 0.00 0.00 0.00 88 1012.5
20260831113006 55 170 0.0 0.0 0.00 0.00 0.00 88 1012.5
20260831112505 55 170 0.0 0.0 0.00 0.00 0.00 87 1011.5
20260831112006 55 170 0.0 0.0 0.00 0.00 0.00 87 1011.5
20260831111506 55 170 0.0 0.0 0.00 0.00 0.00 87 1011.5
20260831110506 55 170 0.0 0.0 0.00 0.00 0.00 86 1012.5
20260831105506 56 170 0.0 0.0 0.00 0.00 0.00 86 1012.5
20260831105005 56 170 0.0 0.0 0.00 0.00 0.00 85 1012.5
20260831104506 56 215 0.0 0.0 0.00 0.00 0.00 85 1012.5
20260831104005 56 192 0.0 0.0 0.00 0.00 0.00 85 1012.5
20260831103506 56 192 0.0 0.0 0.00 0.00 0.00 85 1012.5
20260831102506 56 192 0.0 0.0 0.00 0.00 0.00 84 1012.5
20260831102006 56 192 0.0 0.0 0.00 0.00 0.00 84 1012.5
20260831101505 56 102 0.0 0.0 0.00 0.00 0.00 84 1012.5
20260831101006 56 102 0.0 0.0 0.00 0.00 0.00 84 1012.5
20260831100506 56 102 0.0 0.0 0.00 0.00 0.00 84 1012.5
20260831100006 56 102 0.0 0.0 0.00 0.00 0.00 84 1012.5
20260831095505 56 192 0.0 0.0 0.00 0.00 0.00 83 1012.5
20260831095005 57 192 0.0 0.0 0.00 0.00 0.00 83 1012.5
20260831094505 57 192 0.0 0.0 0.00 0.00 0.00 83 1012.5
20260831094005 57 192 0.0 0.0 0.00 0.00 0.00 83 1012.5
20260831093505 57 192 0.0 0.0 0.00 0.00 0.00 83 1012.5
20260831093005 57 192 0.0 0.0 0.00 0.00 0.00 83 1012.5
20260831092005 57 192 0.0 0.0 0.00 0.00 0.00 82 1012.5
20260831091505 57 192 0.0 0.0 0.00 0.00 0.00 82 1012.5
20260831090005 57 192 0.0 0.0 0.00 0.00 0.00 81 1011.5
20260831085505 57 170 0.0 0.0 0.00 0.00 0.00 81 1012.5
20260831085006 58 170 0.0 0.0 0.00 0.00 0.00 81 1012.5
20260831084505 58 170 0.0 0.0 0.00 0.00 0.00 80 1012.5
20260831084005 58 170 0.0 0.0 0.00 0.00 0.00 80 1012.5
20260831083505 58 85 0.0 0.0 0.00 0.00 0.00 80 1012.5
20260831082505 58 238 0.0 0.0 0.00 0.00 0.00 79 1013.5
20260831082005 58 238 0.0 0.0 0.00 0.00 0.00 79 1013.5
20260831081505 58 238 0.0 0.0 0.00 0.00 0.00 79 1013.5
20260831081005 58 238 0.0 0.0 0.00 0.00 0.00 79 1013.5
20260831080505 58 238 0.0 0.0 0.00 0.00 0.00 78 1013.5
20260831080005 58 238 0.0 0.0 0.00 0.00 0.00 78 1013.5
20260831075505 58 238 0.0 0.0 0.00 0.00 0.00 78 1013.5
20260831075005 58 238 0.0 0.0 0.00 0.00 0.00 78 1013.5
20260831074505 58 238 0.0 0.0 0.00 0.00 0.00 78 1013.5
20260831074006 59 238 0.0 0.0 0.00 0.00 0.00 77 1013.5
20260831073506 59 238 0.0 0.0 0.00 0.00 0.00 77 1013.5
20260831073005 59 238 0.0 0.0 0.00 0.00 0.00 77 1013.5
20260831072505 59 238 0.0 0.0 0.00 0.00 0.00 76 1014.5
20260831072005 59 238 0.0 0.0 0.00 0.00 0.00 75 1014.5
20260831071505 59 238 0.0 0.0 0.00 0.00 0.00 75 1014.5
20260831071006 59 238 0.0 0.0 0.00 0.00 0.00 75 1014.5
20260831065505 59 238 0.0 0.0 0.00 0.00 0.00 74 1014.5
20260831065005 60 238 0.0 0.0 0.00 0.00 0.00 74 1014.5
20260831064005 60 170 0.0 0.0 0.00 0.00 0.00 74 1014.5
20260831063505 60 201 0.0 0.0 0.00 0.00 0.00 73 1014.5
20260831063005 60 181 0.0 0.0 0.00 0.00 0.00 73 1014.5
20260831062505 60 92 0.0 0.0 0.00 0.00 0.00 73 1014.5
20260831061505 60 125 0.0 0.0 0.00 0.00 0.00 72 1014.5
20260831055505 61 305 0.0 0.0 0.00 0.00 0.00 71 1013.5
20260831055005 61 56 0.0 0.0 0.00 0.00 0.00 71 1013.5
20260831054505 61 141 0.0 0.0 0.00 0.00 0.00 70 1013.5
20260831054005 61 211 0.0 0.0 0.00 0.00 0.00 70 1014.5
20260831053005 61 102 0.0 0.0 0.00 0.00 0.00 69 1014.5
20260831052505 61 120 0.0 0.0 0.00 0.00 0.00 69 1014.5
20260831052006 62 43 0.0 0.0 0.00 0.00 0.00 68 1014.5
20260831051505 62 215 0.0 6.0 0.00 0.00 0.00 68 1014.5
20260831051005 62 282 0.0 6.0 0.00 0.00 0.00 68 1014.5
20260831050005 62 344 0.0 0.0 0.00 0.00 0.00 67 1014.5
20260831045504 62 144 0.0 0.0 0.00 0.00 0.00 67 1014.5
20260831045005 62 35 0.0 0.0 0.00 0.00 0.00 67 1014.5
20260831044504 62 184 0.0 6.0 0.00 0.00 0.00 67 1014.5
20260831043505 62 215 0.0 0.0 0.00 0.00 0.00 66 1014.5
20260831043005 62 101 0.0 0.0 0.00 0.00 0.00 66 1014.5
20260831042505 62 260 0.0 0.0 0.00 0.00 0.00 65 1014.5
20260831041504 63 269 0.0 0.0 0.00 0.00 0.00 64 1014.5
20260831041005 63 282 0.0 0.0 0.00 0.00 0.00 63 1014.5
20260831040504 63 282 0.0 0.0 0.00 0.00 0.00 63 1014.5
20260831040005 63 305 0.0 0.0 0.00 0.00 0.00 63 1014.5
20260831034505 64 192 0.0 0.0 0.00 0.00 0.00 62 1014.5
20260831034004 64 215 0.0 0.0 0.00 0.00 0.00 61 1015.5
20260831033505 64 269 0.0 3.0 0.00 0.00 0.00 61 1015.5
20260831033004 64 215 0.0 3.0 0.00 0.00 0.00 60 1015.5
20260831032505 64 284 0.0 3.0 0.00 0.00 0.00 60 1015.5
20260831032004 64 305 0.0 0.0 0.00 0.00 0.00 59 1015.5
20260831031504 64 192 0.0 0.0 0.00 0.00 0.00 59 1015.5
20260831031004 65 282 0.0 0.0 0.00 0.00 0.00 58 1015.5
20260831030504 65 35 0.0 0.0 0.00 0.00 0.00 58 1015.5
20260831030004 65 287 0.0 0.0 0.00 0.00 0.00 57 1015.5
20260831025504 65 260 0.0 0.0 0.00 0.00 0.00 57 1015.5
20260831025005 65 260 0.0 0.0 0.00 0.00 0.00 56 1015.5
20260831024504 66 260 0.0 0.0 0.00 0.00 0.00 56 1015.5
20260831024004 66 185 0.0 0.0 0.00 0.00 0.00 55 1015.5
20260831023504 66 192 0.0 0.0 0.00 0.00 0.00 55 1015.5
20260831023006 66 305 0.0 5.0 0.00 0.00 0.00 54 1015.5
20260831022505 66 236 0.0 5.0 0.00 0.00 0.00 54 1015.5
20260831022004 67 173 0.0 0.0 0.00 0.00 0.00 54 1015.5
20260831021504 67 119 0.0 0.0 0.00 0.00 0.00 53 1015.5
20260831021005 67 192 0.0 0.0 0.00 0.00 0.00 53 1015.5
20260831020504 67 287 0.0 15.0 0.00 0.00 0.00 52 1015.5
20260831015504 68 352 0.0 2.0 0.00 0.00 0.00 52 1015.5
20260831015004 68 81 0.0 6.0 0.00 0.00 0.00 51 1015.5
20260831014504 68 10 0.0 6.0 0.00 0.00 0.00 51 1015.5
20260831014004 68 215 0.0 5.0 0.00 0.00 0.00 51 1016.5
20260831013504 68 81 0.0 5.0 0.00 0.00 0.00 50 1016.5
20260831013004 69 199 1.0 5.0 0.00 0.00 0.00 50 1016.5
20260831012005 69 43 1.0 5.0 0.00 0.00 0.00 50 1016.5
20260831011504 69 38 0.0 6.0 0.00 0.00 0.00 50 1016.5
20260831011005 69 196 0.0 16.0 0.00 0.00 0.00 50 1016.5
20260831010504 69 93 1.0 16.0 0.00 0.00 0.00 49 1016.5
20260831010005 69 44 1.0 16.0 0.00 0.00 0.00 49 1016.5
20260831005004 69 78 0.0 12.0 0.00 0.00 0.00 49 1016.5
20260831003504 70 89 1.0 10.0 0.00 0.00 0.00 48 1016.5
20260831003005 70 106 0.0 10.0 0.00 0.00 0.00 48 1016.5
20260831002504 70 86 3.0 12.0 0.00 0.00 0.00 48 1016.5
20260831002004 71 25 2.0 12.0 0.00 0.00 0.00 48 1016.5
20260831001505 71 59 2.0 6.0 0.00 0.00 0.00 48 1016.5
20260831001004 71 248 0.0 7.0 0.00 0.00 0.00 48 1016.5
20260831000004 71 83 0.0 13.0 0.00 0.00 0.00 47 1016.5
20260830235504 71 156 5.0 13.0 0.00 0.00 0.00 47 1016.5
20260830234004 72 62 1.0 10.0 0.00 0.00 0.00 47 1015.5
20260830233504 72 30 1.0 14.0 0.00 0.00 0.00 47 1015.5
20260830232504 72 320 1.0 10.0 0.00 0.00 0.00 47 1016.5